Location: Unspecified
(52.4292°N, 19.3359°E)
Time: 23:12:44
(UTC+02:00)

SR - Pass Details

Date: 29 May 2024
Orbit: 580 x 858 km, 66.7° (Epoch: 12 June)

Event Time Altitude Azimuth Distance (km) Brightness Sun altitude
Rises 18:09:18 0° 238° (WSW) 3,162 ? 21.7°
Reaches altitude 10° 18:11:50 10° 244° (WSW) 2,195 ? 21.3°
Maximum altitude 18:16:36 45° 318° (NW) 917 ? 20.6°
Drops below altitude 10° 18:21:03 10° 32° (NNE) 2,039 ? 19.9°
Sets 18:23:20 0° 39° (NE) 2,914 ? 19.6°
